Vertical_Velocity
-1 -1 1 0 -0 -1 4 -6 7 -14 2 -7 -3 -4 -5 -2 1 1 -2 1 1 2 1 -3 -3 -3 1 -3 1 -0 -2 2 -4 -0 1 -1 -1 -4 5 2 -11 2 3 11
-1 -1 2 1 -1 0 -0 -3 1 2 -11 -2 2 3 3 -1 -1 -1 -0 1 1 2 2 -2 -2 -1 0 -3 -5 -1 -1 -5 -2 -4 3 -2 0 -3 -2 -5 -5 2 -5 -6
-8 0 -0 -2 -7 -2 -1 -0 -3 -0 -11 -0 2 1 -1 -1 -1 -2 -0 2 1 1 1 -1 -1 -0 -3 -1 -4 -2 -0 -1 -4 -5 -2 -2 -1 -1 3 -3 6 -11 1 2
-2 -1 3 -22 -0 -1 -1 -2 0 0 -0 -1 -1 1 -1 2 -3 -2 -0 1 -0 1 2 0 1 -1 0 -2 -2 -6 -0 -3 -1 -2 -4 -2 -1 0 -0 4 -7 -3 7 -6
1 0 -10 -11 -6 -1 -2 -10 -1 -2 1 1 2 -0 2 1 1 -0 1 -0 0 2 1 0 0 -1 0 -0 -3 -5 -1 -3 -1 -1 -2 -0 -3 -1 2 2 3 -6 -8 -1
2 4 -0 -8 -2 1 -1 -9 0 -2 -0 -2 -0 -1 -3 -0 -0 -1 -0 0 1 1 1 0 -1 1 2 0 -1 -4 -2 -2 0 -1 -2 -2 -0 2 6 6 6 7 -2 7
-1 -0 -5 -4 -1 0 -6 -20 0 -0 -2 -3 -2 -3 -0 1 1 2 0 -1 -0 1 1 -0 -1 1 1 1 -2 1 -1 3 -0 1 -1 1 1 -1 -3 -6 -3 -5 -0 -2
1 3 -6 0 -2 -5 -5 -0 0 2 -2 -2 -0 1 1 -1 -2 -1 0 0 0 -0 0 -0 0 0 0 -1 0 1 1 1 0 -0 1 3 5 4 4 2 1 -2 -4 -11
-7 -10 -2 -3 -4 -3 1 2 -1 -0 -0 -0 -1 0 1 1 1 1 0 -0 0 1 0 -0 0 1 2 -0 0 -1 3 -1 0 -2 -3 -6 -8 -9 -10 -6 -2 0 -1 0
-2 -5 -2 1 6 -2 -1 -1 1 -1 -1 0 -5 2 1 2 1 -1 -1 -1 -0 0 -0 0 0 -1 0 0 1 -1 -2 0 -1 -2 -1 -1 0 2 3 -0 -3 -5 -4 -3
-4 -2 -3 -3 -2 -0 0 -0 -1 -0 0 1 0 1 1 1 -1 -1 -1 -1 0 0 1 1 -0 -0 1 1 1 0 -0 0 1 -1 -1 1 -2 -1 2 2 2 1 1 -1
-9 -3 -1 -2 -1 -2 -2 -1 -1 -1 -1 2 4 -0 -2 -2 1 -1 -1 -1 -0 1 1 0 -0 -1 -0 0 -1 -1 -0 -1 -1 -3 -2 -1 2 5 2 -1 2 6 5 2
-5 -1 1 -0 1 1 -2 -3 -2 -0 1 -2 1 -2 -2 -1 -1 0 0 0 -1 -1 -1 0 -0 -0 1 1 1 1 1 0 2 2 -0 -1 -1 -2 -5 -1 -2 -1 -4 -3
1 -1 1 2 -5 -2 -0 -1 1 0 1 -0 -3 -1 1 -1 0 0 -0 -1 -1 -1 -1 -1 -1 -0 -1 -0 0 -0 -1 -1 -1 -0 -1 -1 -3 -6 -6 -4 -2 -0 3 0
2 2 1 1 0 0 5 -4 -1 0 -1 -2 2 0 -1 -2 -1 -1 0 0 -0 -0 -0 -1 -2 -1 -2 -2 -2 -2 -3 -5 -4 -6 -6 -5 -5 1 4 2 -1 -4 -7 -3
-0 0 0 1 0 1 1 -1 -1 -1 -2 0 -0 1 1 1 0 -0 0 1 1 0 -0 -1 -1 -1 -2 -1 -2 -3 -2 -2 -3 -5 -5 -4 -4 -5 -8 -7 -7 -5 -3 -4
-3 3 2 1 -0 -0 -4 -2 1 -1 -1 -1 -1 1 1 -1 -0 -0 1 1 1 0 0 -0 -0 -1 -0 -1 -2 -2 -2 -2 -2 -1 -1 -3 -3 -2 -0 -1 -2 1 4 3
4 3 3 2 -6 -5 -3 -0 -0 -2 -3 -0 1 0 -2 -3 -1 0 1 0 -0 -0 0 1 1 -0 -2 -1 -1 -1 -1 -1 -1 -2 -1 1 1 -1 -1 -1 0 0 -1 -1
-1 -2 -1 -0 -1 -2 -3 -1 -1 1 1 1 -2 -3 0 2 1 2 2 1 -0 0 -1 -0 1 -0 -0 -1 -0 -1 -1 -1 -0 0 -1 -2 -3 -1 2 2 1 -1 -3 -3
1 3 3 -0 -0 -2 -3 1 1 1 1 0 2 1 -0 -0 -2 0 2 2 1 1 1 1 0 -0 0 0 0 -1 0 2 1 -2 -3 0 3 3 0 -0 -0 -1 -1 -0
0 -1 -1 -3 -3 -0 2 1 -1 -2 -1 -0 -2 -1 0 1 1 1 0 -1 0 -0 -0 -0 -0 1 0 -1 -0 1 1 -2 -3 0 4 1 -1 -0 1 2 1 1 1 2
-2 -2 -1 -1 -0 -1 1 2 2 2 1 1 1 2 -1 0 1 1 2 3 0 -0 -0 -0 -0 -1 0 0 -0 1 0 -1 1 1 0 -0 -0 -1 -1 -1 -1 -1 -1 1
-1 -0 -2 -2 -1 0 0 1 0 0 0 -0 -1 -1 -1 2 2 -1 -3 -1 -0 -1 -1 -1 -1 -1 -0 0 -0 -1 -1 -1 -1 -1 -1 -1 -2 -2 -1 -1 -1 -0 0 -0
-2 0 1 0 1 1 -1 -1 -0 2 5 4 4 3 -1 -3 -0 -0 -1 -0 -1 -1 -1 -1 -1 0 -1 -1 -0 -0 -1 -1 -1 -1 -2 -3 -2 -1 -1 -1 -1 -1 -0 0
1 0 -1 -1 -0 -0 0 0 -1 -0 -1 2 2 2 2 1 2 0 -1 -0 1 0 -0 -0 -1 -1 -0 -0 -1 -1 -2 -2 -2 -2 -2 -1 -1 -1 -1 -1 0 -1 -1 -1
-1 0 1 2 2 1 -0 -0 0 -0 -0 -1 1 0 -0 0 -0 -1 -0 -1 -1 -1 -1 -1 -0 0 0 -0 -1 -1 -1 -1 -1 -1 -1 -1 -0 -0 -0 0 -1 -1 -1 -0
-1 0 -1 -1 -1 -1 -0 0 0 -1 -0 1 1 -0 0 0 -0 0 0 -1 -1 -1 -1 -0 -1 -1 -1 -1 -1 -1 -1 -1 -1 -1 -1 -1 -1 -1 -1 -1 -1 -1 -1 -2
Height
1508 1507 1506 1503 1504 1503 1502 1495 1496 1483 1484 1473 1482 1485 1489 1493 1495 1497 1499 1500 1498 1494 1490 1488 1486 1484 1479 1474 1468 1462 1456 1450 1443 1438 1431 1422 1415 1409 1404 1393 1389 1388 1378 1371
1517 1505 1504 1499 1499 1495 1487 1485 1482 1477 1472 1472 1477 1481 1487 1489 1493 1496 1499 1498 1496 1494 1490 1488 1487 1485 1481 1476 1472 1468 1461 1455 1451 1445 1438 1432 1426 1419 1415 1408 1400 1392 1386 1387
1499 1500 1500 1495 1491 1481 1477 1473 1471 1475 1465 1472 1477 1479 1482 1487 1491 1494 1497 1496 1494 1493 1491 1490 1488 1486 1483 1480 1476 1472 1467 1462 1457 1452 1447 1441 1436 1430 1424 1419 1414 1406 1402 1394
1501 1502 1504 1484 1474 1474 1473 1466 1464 1467 1469 1470 1472 1477 1480 1485 1489 1493 1495 1494 1493 1493 1491 1490 1489 1488 1486 1483 1478 1475 1471 1467 1463 1458 1454 1450 1444 1438 1433 1427 1421 1416 1407 1401
1500 1496 1484 1478 1469 1471 1469 1461 1457 1461 1468 1472 1475 1478 1482 1485 1489 1492 1493 1493 1493 1492 1491 1490 1490 1489 1488 1484 1481 1478 1475 1471 1467 1464 1460 1455 1449 1445 1440 1435 1429 1424 1423 1417
1503 1494 1487 1472 1469 1468 1466 1467 1458 1460 1465 1469 1475 1480 1479 1483 1487 1491 1492 1493 1492 1491 1491 1491 1490 1490 1489 1486 1483 1480 1479 1476 1473 1469 1466 1461 1457 1452 1448 1443 1438 1433 1429 1424
1494 1487 1474 1464 1466 1467 1474 1468 1459 1460 1463 1468 1472 1473 1475 1480 1486 1490 1492 1492 1492 1491 1491 1491 1491 1490 1489 1487 1484 1483 1482 1480 1476 1472 1469 1465 1462 1458 1453 1449 1445 1442 1438 1437
1484 1479 1474 1466 1467 1470 1465 1460 1460 1461 1463 1467 1470 1472 1475 1480 1485 1488 1490 1491 1491 1491 1491 1491 1491 1491 1489 1487 1486 1485 1484 1482 1478 1475 1472 1468 1464 1460 1457 1454 1449 1447 1445 1444
1477 1471 1464 1463 1464 1464 1463 1461 1460 1461 1463 1466 1469 1473 1477 1481 1485 1488 1490 1491 1492 1492 1491 1491 1491 1491 1490 1488 1488 1487 1485 1483 1481 1478 1475 1472 1469 1465 1462 1459 1456 1454 1452 1451
1469 1462 1458 1459 1458 1459 1461 1461 1460 1461 1463 1465 1468 1473 1477 1482 1485 1488 1490 1492 1492 1492 1491 1491 1492 1492 1491 1490 1489 1487 1487 1485 1482 1480 1478 1475 1473 1470 1467 1465 1463 1461 1459 1458
1464 1457 1456 1453 1452 1454 1458 1459 1460 1462 1464 1465 1468 1473 1477 1481 1485 1488 1490 1492 1492 1492 1492 1491 1491 1492 1492 1491 1490 1488 1487 1486 1484 1482 1481 1479 1476 1473 1471 1470 1469 1466 1464 1462
1455 1450 1452 1449 1448 1453 1456 1458 1460 1462 1464 1467 1469 1472 1476 1482 1485 1488 1490 1491 1492 1493 1492 1492 1492 1492 1492 1492 1490 1489 1488 1486 1484 1482 1482 1480 1478 1476 1474 1473 1471 1469 1466 1462
1444 1445 1448 1448 1449 1452 1455 1458 1460 1462 1464 1467 1470 1473 1478 1482 1485 1488 1490 1491 1492 1493 1493 1492 1492 1492 1492 1491 1491 1490 1488 1486 1484 1482 1481 1479 1477 1475 1474 1474 1472 1469 1467 1465
1443 1444 1448 1447 1448 1451 1455 1458 1460 1463 1466 1468 1471 1476 1479 1481 1484 1487 1489 1491 1492 1493 1493 1493 1493 1493 1492 1492 1491 1490 1488 1487 1485 1483 1481 1479 1478 1477 1477 1474 1471 1469 1468 1465
1440 1441 1441 1443 1447 1451 1454 1456 1460 1464 1466 1469 1473 1476 1478 1480 1483 1486 1489 1491 1492 1493 1493 1493 1493 1492 1492 1492 1491 1490 1489 1487 1486 1484 1482 1481 1479 1479 1477 1474 1472 1470 1468 1466
1438 1440 1441 1443 1446 1450 1452 1456 1460 1463 1467 1470 1472 1475 1477 1481 1483 1486 1488 1490 1492 1493 1493 1493 1493 1492 1492 1492 1491 1490 1489 1487 1485 1484 1482 1480 1479 1477 1475 1473 1472 1469 1467 1463
1434 1439 1440 1443 1445 1448 1451 1456 1459 1463 1466 1469 1472 1474 1477 1480 1483 1485 1488 1489 1491 1492 1493 1493 1493 1493 1493 1492 1491 1490 1488 1487 1484 1482 1480 1479 1477 1476 1474 1472 1469 1467 1464 1461
1431 1434 1435 1437 1442 1446 1451 1455 1459 1462 1465 1468 1471 1474 1476 1479 1482 1484 1486 1488 1490 1491 1492 1493 1493 1492 1492 1491 1490 1488 1487 1484 1482 1480 1478 1477 1475 1473 1471 1468 1465 1462 1459 1457
1431 1432 1434 1438 1442 1446 1450 1454 1457 1461 1464 1467 1469 1472 1475 1479 1482 1484 1485 1487 1489 1491 1491 1492 1492 1491 1491 1490 1488 1487 1485 1482 1480 1478 1476 1474 1472 1470 1468 1465 1462 1459 1456 1453
1430 1433 1435 1438 1442 1446 1450 1455 1458 1461 1464 1466 1469 1472 1474 1477 1481 1483 1485 1486 1488 1490 1490 1491 1491 1490 1488 1487 1485 1483 1481 1479 1477 1475 1473 1471 1469 1466 1463 1461 1458 1455 1452 1449
1430 1433 1436 1439 1443 1448 1452 1455 1458 1460 1463 1466 1468 1471 1474 1477 1480 1482 1483 1485 1487 1488 1489 1489 1488 1487 1486 1484 1482 1480 1478 1476 1473 1471 1469 1466 1464 1461 1458 1455 1452 1449 1446 1442
1431 1434 1438 1442 1445 1449 1452 1455 1458 1460 1463 1465 1468 1471 1474 1476 1479 1481 1483 1485 1486 1487 1487 1487 1486 1484 1482 1480 1478 1476 1474 1472 1470 1468 1465 1462 1459 1457 1453 1450 1446 1443 1440 1436
1433 1437 1440 1443 1446 1449 1452 1455 1457 1460 1462 1465 1467 1470 1473 1476 1478 1480 1481 1483 1484 1485 1485 1485 1483 1482 1479 1477 1475 1473 1470 1468 1466 1463 1460 1458 1454 1451 1448 1445 1441 1437 1434 1430
1435 1438 1441 1444 1446 1449 1451 1453 1456 1460 1462 1465 1467 1470 1472 1474 1477 1479 1480 1481 1483 1483 1483 1482 1480 1478 1476 1474 1472 1470 1468 1465 1463 1460 1457 1454 1451 1447 1444 1440 1437 1433 1429 1425
1436 1439 1442 1444 1446 1448 1450 1452 1455 1458 1461 1464 1467 1470 1472 1474 1477 1477 1479 1480 1480 1480 1480 1479 1477 1475 1473 1471 1469 1467 1465 1462 1460 1457 1454 1450 1447 1444 1440 1436 1432 1428 1424 1421
1437 1439 1441 1443 1445 1447 1449 1451 1454 1456 1459 1462 1466 1469 1471 1474 1475 1476 1477 1478 1478 1478 1477 1475 1473 1472 1470 1468 1466 1464 1461 1459 1456 1453 1450 1447 1444 1440 1436 1432 1428 1424 1420 1416
1437 1439 1440 1442 1444 1446 1448 1451 1453 1455 1459 1462 1465 1468 1470 1472 1474 1475 1476 1476 1476 1475 1473 1472 1470 1469 1467 1465 1463 1461 1458 1456 1453 1450 1447 1444 1440 1436 1433 1429 1425 1420 1416 1413